Back to catalog

STARLINK-30355

AliveCommunicationsVLEO
NORAD 57777·PAYLOAD·🇺🇸 United States

Launched Sep 4, 2023 from Cape Canaveral Space Force Station

Loading…

Next Passes (next 24 hours)

TLE

FreshSource: CelesTrak SupGP

Epoch: Sep 14, 2026, 13:57 UTC

1 57777C 23134G   26257.58173611 -.00066169  00000+0 -23969-2 0  2577
2 57777  43.0013 211.2162 0001257 261.2750 115.7801 15.27608082    12

Track STARLINK-30355 in real time with AllMySat

Download on the App Store